GW1859 Weather Reports


time (UTC)temp
C
wind
direction
speed
KPH
gust
KPH
rain 1hr
cm
rain 24hr
cm
rain mn
cm
humidity
%
barometer
mb
20260510020743 19 70 1.6 3.2 0.00 0.00 0.00 67 1013.5
20260510020242 19 116 0.0 0.0 0.00 0.00 0.00 69 1013.3
20260510015739 21 111 0.0 1.6 0.00 0.00 0.00 68 1013.1
20260510015235 22 119 0.0 0.0 0.00 0.00 0.00 55 1012.8
20260510014730 22 135 0.0 0.0 0.00 0.00 0.00 51 1013.3
20260510014228 23 241 6.4 9.7 0.00 0.00 0.00 44 1013.5
20260510013724 25 123 0.0 1.6 0.00 0.00 0.00 40 1013.4
20260510013219 25 189 8.0 11.3 0.00 0.00 0.00 36 1013.3
20260510012719 25 71 3.2 4.8 0.00 0.00 0.00 39 1012.8
20260510012215 24 127 1.6 3.2 0.00 0.00 0.00 38 1012.4
20260510011709 24 143 0.0 0.0 0.00 0.00 0.00 38 1012.3
20260510011205 25 138 0.0 0.0 0.00 0.00 0.00 37 1011.8
20260510010702 25 134 0.0 0.0 0.00 0.00 0.00 36 1011.3
20260510010158 25 136 0.0 0.0 0.00 0.00 0.00 36 1010.9
20260510005655 25 127 0.0 0.0 0.00 0.00 0.00 35 1010.9
20260510005151 25 128 0.0 0.0 0.00 0.00 0.00 34 1010.3
20260510004650 25 126 0.0 0.0 0.00 0.00 0.00 33 1010.2
20260510004148 25 116 3.2 3.2 0.00 0.00 0.00 32 1009.8
20260510003645 26 132 0.0 0.0 0.00 0.00 0.00 32 1009.7
20260510003140 26 123 0.0 0.0 0.00 0.00 0.00 33 1009.5
20260510002635 26 122 0.0 0.0 0.00 0.00 0.00 30 1009.2
20260510002132 26 125 0.0 0.0 0.00 0.00 0.00 29 1009.1
20260510001629 27 126 0.0 0.0 0.00 0.00 0.00 29 1009.2
20260510001128 27 131 0.0 0.0 0.00 0.00 0.00 28 1009.1
20260510000627 27 127 0.0 0.0 0.00 0.00 0.00 28 1009.2
20260510000126 27 124 0.0 0.0 0.00 0.00 0.00 28 1009.3
20260509235621 28 124 0.0 1.6 0.00 0.00 0.00 27 1009.0
20260509235118 28 126 0.0 0.0 0.00 0.00 0.00 26 1009.2
20260509234614 30 131 0.0 0.0 0.00 0.00 0.00 24 1008.9
20260509234113 30 62 0.0 1.6 0.00 0.00 0.00 23 1009.1
20260509233610 30 156 3.2 3.2 0.00 0.00 0.00 23 1009.1
20260509233107 30 157 4.8 4.8 0.00 0.00 0.00 23 1009.5
20260509232603 31 141 0.0 0.0 0.00 0.00 0.00 23 1009.5
20260509232100 31 226 4.8 8.0 0.00 0.00 0.00 21 1009.3
20260509231556 32 147 0.0 0.0 0.00 0.00 0.00 24 1009.6
20260509231054 31 134 0.0 0.0 0.00 0.00 0.00 22 1009.6
20260509230551 31 166 3.2 3.2 0.00 0.00 0.00 21 1009.6
20260509230048 31 233 1.6 3.2 0.00 0.00 0.00 21 1009.9
20260509225549 32 127 1.6 1.6 0.00 0.00 0.00 22 1009.9
20260509225044 31 138 0.0 1.6 0.00 0.00 0.00 22 1009.3
20260509224540 31 155 0.0 1.6 0.00 0.00 0.00 22 1009.7
20260509224037 31 133 1.6 1.6 0.00 0.00 0.00 23 1009.5
20260509223534 30 136 0.0 0.0 0.00 0.00 0.00 23 1009.3
20260509223032 31 112 1.6 1.6 0.00 0.00 0.00 22 1009.8
20260509222528 31 254 3.2 4.8 0.00 0.00 0.00 21 1009.5
20260509222023 32 152 1.6 3.2 0.00 0.00 0.00 22 1009.6
20260509221520 32 151 0.0 0.0 0.00 0.00 0.00 21 1009.5
20260509221016 32 118 1.6 1.6 0.00 0.00 0.00 21 1009.6
20260509220512 32 126 0.0 0.0 0.00 0.00 0.00 21 1009.2
20260509220008 32 142 3.2 4.8 0.00 0.00 0.00 22 1009.6
20260509215503 32 131 0.0 1.6 0.00 0.00 0.00 22 1009.6
20260509215001 32 196 1.6 3.2 0.00 0.00 0.00 21 1009.7
20260509214458 31 126 1.6 1.6 0.00 0.00 0.00 20 1009.2
20260509213955 31 226 3.2 4.8 0.00 0.00 0.00 20 1009.3
20260509213451 31 201 4.8 4.8 0.00 0.00 0.00 20 1009.1
20260509212948 32 193 3.2 3.2 0.00 0.00 0.00 21 1009.5
20260509212445 31 204 3.2 3.2 0.00 0.00 0.00 21 1009.6
20260509211941 31 167 1.6 1.6 0.00 0.00 0.00 20 1009.6
20260509211437 32 164 4.8 9.7 0.00 0.00 0.00 21 1009.8
20260509210934 32 135 1.6 1.6 0.00 0.00 0.00 22 1009.9
20260509210431 32 135 0.0 0.0 0.00 0.00 0.00 23 1010.1
20260509205926 32 168 3.2 4.8 0.00 0.00 0.00 20 1009.9
20260509205421 32 146 0.0 1.6 0.00 0.00 0.00 20 1009.9
20260509204917 32 137 0.0 1.6 0.00 0.00 0.00 20 1010.3
20260509204414 31 113 0.0 0.0 0.00 0.00 0.00 21 1010.1
20260509203910 32 180 3.2 4.8 0.00 0.00 0.00 20 1010.3
20260509203406 31 138 1.6 1.6 0.00 0.00 0.00 22 1010.3
20260509202904 32 201 3.2 3.2 0.00 0.00 0.00 20 1010.3
20260509202359 31 172 1.6 1.6 0.00 0.00 0.00 23 1010.4
20260509201855 31 147 1.6 3.2 0.00 0.00 0.00 23 1010.7
20260509201350 30 131 0.0 0.0 0.00 0.00 0.00 24 1010.5
20260509200848 31 117 0.0 0.0 0.00 0.00 0.00 24 1010.5
20260509200342 31 158 1.6 3.2 0.00 0.00 0.00 23 1010.5
20260509195839 31 269 3.2 3.2 0.00 0.00 0.00 21 1010.6
20260509195334 31 134 1.6 3.2 0.00 0.00 0.00 22 1010.8
20260509194834 31 134 0.0 1.6 0.00 0.00 0.00 22 1010.7
20260509194330 31 203 1.6 3.2 0.00 0.00 0.00 22 1010.8
20260509193827 31 282 6.4 8.0 0.00 0.00 0.00 22 1010.8
20260509193321 31 187 1.6 1.6 0.00 0.00 0.00 23 1011.0
20260509192817 30 129 0.0 0.0 0.00 0.00 0.00 24 1011.0
20260509192314 30 135 0.0 0.0 0.00 0.00 0.00 24 1011.0
20260509191809 30 130 0.0 0.0 0.00 0.00 0.00 24 1011.0
20260509191305 31 231 3.2 3.2 0.00 0.00 0.00 23 1011.0
20260509190801 31 110 4.8 4.8 0.00 0.00 0.00 22 1011.1
20260509190258 31 193 3.2 4.8 0.00 0.00 0.00 22 1011.1
20260509185755 30 205 1.6 1.6 0.00 0.00 0.00 22 1011.2
20260509185251 30 241 4.8 4.8 0.00 0.00 0.00 23 1011.2
20260509184749 30 177 4.8 4.8 0.00 0.00 0.00 23 1011.3
20260509184247 30 357 1.6 3.2 0.00 0.00 0.00 25 1011.5
20260509183743 30 117 1.6 1.6 0.00 0.00 0.00 25 1011.5
20260509183238 30 256 4.8 4.8 0.00 0.00 0.00 25 1011.6
20260509182734 30 138 0.0 0.0 0.00 0.00 0.00 25 1011.5
20260509182232 29 224 3.2 8.0 0.00 0.00 0.00 25 1011.7
20260509181729 29 235 4.8 4.8 0.00 0.00 0.00 25 1011.8
20260509181226 30 352 6.4 9.7 0.00 0.00 0.00 25 1011.6
20260509180723 30 242 1.6 1.6 0.00 0.00 0.00 25 1012.0
20260509180220 28 194 3.2 3.2 0.00 0.00 0.00 26 1012.2
20260509175716 28 213 4.8 8.0 0.00 0.00 0.00 25 1012.3
20260509175212 30 286 8.0 12.9 0.00 0.00 0.00 26 1012.3
20260509174708 29 204 3.2 4.8 0.00 0.00 0.00 26 1012.1
20260509174204 29 199 4.8 8.0 0.00 0.00 0.00 27 1012.4
20260509173700 29 255 8.0 9.7 0.00 0.00 0.00 25 1012.4
20260509173155 29 160 3.2 3.2 0.00 0.00 0.00 26 1012.4
20260509172652 28 222 6.4 8.0 0.00 0.00 0.00 27 1012.5
20260509172148 29 144 1.6 4.8 0.00 0.00 0.00 27 1012.5
20260509171643 28 173 8.0 12.9 0.00 0.00 0.00 26 1012.7
20260509171140 28 206 3.2 4.8 0.00 0.00 0.00 27 1012.8
20260509170638 28 235 3.2 8.0 0.00 0.00 0.00 28 1012.9
20260509170133 28 255 4.8 8.0 0.00 0.00 0.00 28 1012.8
20260509165631 28 253 6.4 8.0 0.00 0.00 0.00 28 1012.9
20260509165127 27 21 3.2 4.8 0.00 0.00 0.00 29 1012.9
20260509164624 28 235 6.4 9.7 0.00 0.00 0.00 28 1012.9
20260509164120 28 174 6.4 9.7 0.00 0.00 0.00 29 1013.1
20260509163617 28 292 4.8 4.8 0.00 0.00 0.00 30 1012.9
20260509163113 28 189 1.6 4.8 0.00 0.00 0.00 31 1012.8
20260509162610 27 198 3.2 3.2 0.00 0.00 0.00 31 1013.0
20260509162105 27 223 3.2 4.8 0.00 0.00 0.00 32 1013.0
20260509161557 27 221 4.8 9.7 0.00 0.00 0.00 32 1012.9
20260509161057 27 201 4.8 4.8 0.00 0.00 0.00 32 1012.9
20260509160553 27 239 3.2 3.2 0.00 0.00 0.00 34 1012.8
20260509160048 26 126 1.6 3.2 0.00 0.00 0.00 33 1013.0
20260509155545 26 50 1.6 3.2 0.00 0.00 0.00 35 1012.8
20260509155041 26 120 4.8 8.0 0.00 0.00 0.00 35 1012.8
20260509154537 26 184 4.8 4.8 0.00 0.00 0.00 36 1012.8
20260509154035 26 167 4.8 4.8 0.00 0.00 0.00 36 1012.9
20260509153532 26 218 1.6 3.2 0.00 0.00 0.00 38 1012.8
20260509153029 25 161 4.8 4.8 0.00 0.00 0.00 40 1012.9
20260509152524 25 189 4.8 4.8 0.00 0.00 0.00 41 1012.8
20260509152021 24 219 4.8 8.0 0.00 0.00 0.00 45 1013.0
20260509151518 23 217 1.6 3.2 0.00 0.00 0.00 50 1012.9
20260509151016 23 201 4.8 4.8 0.00 0.00 0.00 50 1012.9
20260509150513 23 134 1.6 3.2 0.00 0.00 0.00 50 1013.0
20260509150012 23 280 4.8 4.8 0.00 0.00 0.00 51 1012.8
20260509145507 22 229 1.6 3.2 0.00 0.00 0.00 54 1012.8
20260509145002 22 199 1.6 3.2 0.00 0.00 0.00 55 1012.8
20260509144459 22 136 0.0 0.0 0.00 0.00 0.00 55 1012.7
20260509143956 22 145 0.0 0.0 0.00 0.00 0.00 56 1012.6
20260509143453 22 276 3.2 3.2 0.00 0.00 0.00 54 1012.5
20260509142950 22 166 3.2 3.2 0.00 0.00 0.00 53 1012.6
20260509142446 21 175 1.6 1.6 0.00 0.00 0.00 56 1012.6
20260509141942 21 154 1.6 3.2 0.00 0.00 0.00 57 1012.7
20260509141438 20 251 4.8 11.3 0.00 0.00 0.00 58 1012.5
20260509140935 20 157 1.6 1.6 0.00 0.00 0.00 59 1012.5
20260509140431 20 172 1.6 3.2 0.00 0.00 0.00 61 1012.8
20260509135930 20 213 6.4 8.0 0.00 0.00 0.00 60 1012.6
20260509135427 19 179 1.6 3.2 0.00 0.00 0.00 62 1012.5
20260509134925 18 181 4.8 8.0 0.00 0.00 0.00 63 1012.5
20260509134422 18 139 1.6 1.6 0.00 0.00 0.00 65 1012.5
20260509133919 17 156 1.6 1.6 0.00 0.00 0.00 67 1012.3
20260509133415 17 200 4.8 4.8 0.00 0.00 0.00 68 1012.5
20260509132914 16 149 0.0 0.0 0.00 0.00 0.00 70 1012.4
20260509132412 16 192 1.6 3.2 0.00 0.00 0.00 71 1012.5
20260509131908 16 152 0.0 0.0 0.00 0.00 0.00 73 1012.7
20260509131406 15 277 1.6 3.2 0.00 0.00 0.00 75 1013.1
20260509130902 15 188 1.6 3.2 0.00 0.00 0.00 76 1012.8
20260509130357 15 149 0.0 0.0 0.00 0.00 0.00 77 1012.7
20260509125855 13 190 3.2 3.2 0.00 0.00 0.00 77 1012.8
20260509125351 13 144 0.0 0.0 0.00 0.00 0.00 78 1012.8
20260509124847 13 182 0.0 0.0 0.00 0.00 0.00 79 1012.7
20260509124344 12 160 0.0 0.0 0.00 0.00 0.00 79 1012.6
20260509123842 12 159 0.0 0.0 0.00 0.00 0.00 81 1012.4
20260509123339 12 140 0.0 0.0 0.00 0.00 0.00 82 1012.6
20260509122835 12 142 0.0 0.0 0.00 0.00 0.00 82 1012.4
20260509122332 12 144 0.0 0.0 0.00 0.00 0.00 82 1012.3
20260509121829 12 145 0.0 0.0 0.00 0.00 0.00 82 1012.3
20260509121326 12 147 0.0 0.0 0.00 0.00 0.00 81 1012.1
20260509120824 12 154 0.0 0.0 0.00 0.00 0.00 81 1012.1
20260509120322 11 158 0.0 0.0 0.00 0.00 0.00 81 1012.1
20260509115820 11 165 0.0 0.0 0.00 0.00 0.00 81 1012.1
20260509115316 11 192 0.0 0.0 0.00 0.00 0.00 82 1012.1
20260509114814 11 153 0.0 0.0 0.00 0.00 0.00 83 1012.2
20260509114313 11 137 0.0 0.0 0.00 0.00 0.00 83 1012.2
20260509113812 11 146 0.0 0.0 0.00 0.00 0.00 83 1011.8
20260509113308 11 151 0.0 0.0 0.00 0.00 0.00 82 1012.0
20260509112805 11 160 1.6 1.6 0.00 0.00 0.00 83 1011.8
20260509112306 11 151 0.0 0.0 0.00 0.00 0.00 83 1011.7
20260509111759 11 144 0.0 0.0 0.00 0.00 0.00 83 1011.7
20260509111256 11 144 0.0 0.0 0.00 0.00 0.00 83 1011.6
20260509110753 11 145 0.0 0.0 0.00 0.00 0.00 83 1011.6
20260509110249 11 144 0.0 0.0 0.00 0.00 0.00 83 1011.6
20260509105748 11 144 0.0 0.0 0.00 0.00 0.00 83 1011.7
20260509105245 11 145 0.0 0.0 0.00 0.00 0.00 82 1011.5
20260509104742 11 145 0.0 0.0 0.00 0.00 0.00 82 1011.7
20260509104239 11 145 0.0 0.0 0.00 0.00 0.00 83 1011.6
20260509103737 11 146 0.0 0.0 0.00 0.00 0.00 82 1011.6
20260509103234 11 149 0.0 0.0 0.00 0.00 0.00 82 1011.8
20260509102732 11 157 0.0 0.0 0.00 0.00 0.00 82 1011.8
20260509102229 11 155 0.0 0.0 0.00 0.00 0.00 82 1011.8
20260509101725 11 151 0.0 0.0 0.00 0.00 0.00 82 1012.0
20260509101221 11 147 0.0 0.0 0.00 0.00 0.00 81 1012.1
20260509100719 11 150 0.0 0.0 0.00 0.00 0.00 81 1011.8
20260509100216 11 156 0.0 0.0 0.00 0.00 0.00 80 1011.8
20260509095713 11 195 0.0 0.0 0.00 0.00 0.00 80 1012.2
20260509095210 11 153 0.0 0.0 0.00 0.00 0.00 80 1012.1
20260509094707 11 146 0.0 0.0 0.00 0.00 0.00 80 1012.2
20260509094204 11 147 0.0 0.0 0.00 0.00 0.00 79 1012.0
20260509093702 11 171 0.0 0.0 0.00 0.00 0.00 79 1012.2
20260509093159 11 171 1.6 1.6 0.00 0.00 0.00 79 1012.0
20260509092657 11 152 0.0 0.0 0.00 0.00 0.00 79 1012.1
20260509092155 11 168 0.0 0.0 0.00 0.00 0.00 79 1011.7
20260509091653 11 177 0.0 0.0 0.00 0.00 0.00 78 1011.8
20260509091148 11 154 0.0 0.0 0.00 0.00 0.00 77 1012.0
20260509090646 11 150 0.0 0.0 0.00 0.00 0.00 77 1012.0
20260509090143 11 162 0.0 0.0 0.00 0.00 0.00 77 1012.0
20260509085641 11 172 0.0 1.6 0.00 0.00 0.00 76 1012.2
20260509085137 11 162 0.0 1.6 0.00 0.00 0.00 76 1012.0
20260509084634 11 187 1.6 3.2 0.00 0.00 0.00 76 1012.2
20260509084131 11 183 1.6 1.6 0.00 0.00 0.00 77 1012.1
20260509083629 11 148 0.0 0.0 0.00 0.00 0.00 78 1012.1
20260509083125 11 150 0.0 0.0 0.00 0.00 0.00 78 1012.1
20260509082623 11 149 0.0 0.0 0.00 0.00 0.00 78 1012.3
20260509082119 11 153 0.0 0.0 0.00 0.00 0.00 77 1012.2
20260509081616 11 204 1.6 1.6 0.00 0.00 0.00 77 1012.1
20260509081113 11 197 0.0 0.0 0.00 0.00 0.00 76 1012.2
20260509080612 11 165 0.0 0.0 0.00 0.00 0.00 76 1012.2
20260509080109 12 188 0.0 0.0 0.00 0.00 0.00 76 1012.3
20260509075607 12 176 0.0 0.0 0.00 0.00 0.00 75 1012.2
20260509075104 12 166 0.0 0.0 0.00 0.00 0.00 75 1012.3
20260509074601 12 172 0.0 1.6 0.00 0.00 0.00 74 1012.2
20260509074057 12 151 0.0 0.0 0.00 0.00 0.00 74 1012.1
20260509073554 12 164 1.6 1.6 0.00 0.00 0.00 73 1012.3
20260509073050 12 201 1.6 1.6 0.00 0.00 0.00 72 1012.3
20260509072547 12 174 0.0 1.6 0.00 0.00 0.00 72 1012.3
20260509072044 12 172 3.2 4.8 0.00 0.00 0.00 71 1012.3
20260509071541 12 181 3.2 3.2 0.00 0.00 0.00 70 1012.4
20260509071038 13 184 1.6 1.6 0.00 0.00 0.00 69 1012.1
20260509070536 13 152 0.0 0.0 0.00 0.00 0.00 70 1012.5
20260509070032 13 209 0.0 1.6 0.00 0.00 0.00 69 1012.2
20260509065527 13 202 1.6 3.2 0.00 0.00 0.00 69 1012.3
20260509065024 12 146 0.0 0.0 0.00 0.00 0.00 71 1012.2
20260509064521 12 147 0.0 0.0 0.00 0.00 0.00 71 1012.1
20260509064019 12 147 0.0 0.0 0.00 0.00 0.00 71 1012.3
20260509063514 12 147 0.0 0.0 0.00 0.00 0.00 72 1012.3
20260509063012 12 149 0.0 0.0 0.00 0.00 0.00 73 1012.1
20260509062509 11 140 0.0 0.0 0.00 0.00 0.00 75 1012.3
20260509062007 10 138 0.0 0.0 0.00 0.00 0.00 78 1012.1
20260509061504 10 138 0.0 0.0 0.00 0.00 0.00 78 1012.0
20260509061001 10 139 0.0 0.0 0.00 0.00 0.00 79 1012.1
20260509060458 10 139 0.0 0.0 0.00 0.00 0.00 80 1012.3
20260509055953 10 139 0.0 0.0 0.00 0.00 0.00 79 1012.3
20260509055449 11 139 0.0 0.0 0.00 0.00 0.00 79 1012.2
20260509054945 11 139 0.0 0.0 0.00 0.00 0.00 79 1012.2
20260509054442 11 139 0.0 0.0 0.00 0.00 0.00 79 1012.2
20260509053940 11 139 0.0 0.0 0.00 0.00 0.00 78 1012.3
20260509053438 11 139 0.0 0.0 0.00 0.00 0.00 78 1012.2
20260509052935 11 139 0.0 0.0 0.00 0.00 0.00 77 1012.1
20260509052433 11 139 0.0 0.0 0.00 0.00 0.00 77 1012.1
20260509051931 11 139 0.0 0.0 0.00 0.00 0.00 75 1012.3
20260509051428 11 139 0.0 0.0 0.00 0.00 0.00 74 1012.3
20260509050925 12 139 0.0 0.0 0.00 0.00 0.00 75 1012.0
20260509050421 12 140 0.0 0.0 0.00 0.00 0.00 73 1012.3
20260509045918 12 140 0.0 0.0 0.00 0.00 0.00 73 1012.3
20260509045415 12 140 0.0 0.0 0.00 0.00 0.00 71 1012.3
20260509044912 13 140 0.0 0.0 0.00 0.00 0.00 71 1012.3
20260509044410 13 140 0.0 0.0 0.00 0.00 0.00 69 1012.3
20260509043907 13 141 0.0 0.0 0.00 0.00 0.00 68 1012.5
20260509043402 13 147 0.0 0.0 0.00 0.00 0.00 68 1012.2
20260509042858 13 152 0.0 0.0 0.00 0.00 0.00 66 1012.5
20260509042355 13 149 0.0 0.0 0.00 0.00 0.00 68 1012.4
20260509041851 12 150 0.0 0.0 0.00 0.00 0.00 71 1012.3
20260509041343 12 156 0.0 0.0 0.00 0.00 0.00 75 1012.2
20260509040841 11 125 0.0 0.0 0.00 0.00 0.00 77 1012.3
20260509040339 12 125 0.0 0.0 0.00 0.00 0.00 76 1012.2
20260509035835 12 125 0.0 0.0 0.00 0.00 0.00 76 1012.3
20260509035333 12 125 0.0 0.0 0.00 0.00 0.00 74 1012.3
20260509034828 12 125 0.0 0.0 0.00 0.00 0.00 75 1012.2
20260509034327 12 125 0.0 0.0 0.00 0.00 0.00 74 1012.1
20260509033823 12 125 0.0 0.0 0.00 0.00 0.00 72 1012.4
20260509033321 13 125 0.0 0.0 0.00 0.00 0.00 72 1012.1
20260509032817 13 125 0.0 0.0 0.00 0.00 0.00 71 1012.1
20260509032314 13 125 0.0 0.0 0.00 0.00 0.00 71 1012.2
20260509031812 13 125 0.0 0.0 0.00 0.00 0.00 70 1011.7
20260509031309 13 125 0.0 0.0 0.00 0.00 0.00 70 1012.0
20260509030807 13 125 0.0 0.0 0.00 0.00 0.00 69 1011.8
20260509030305 13 125 0.0 0.0 0.00 0.00 0.00 69 1011.8
20260509025801 13 125 0.0 0.0 0.00 0.00 0.00 69 1011.7
20260509025256 13 125 0.0 0.0 0.00 0.00 0.00 69 1012.0
20260509024752 14 125 0.0 0.0 0.00 0.00 0.00 69 1011.8
20260509024248 14 125 0.0 0.0 0.00 0.00 0.00 67 1011.6
20260509023746 15 125 0.0 0.0 0.00 0.00 0.00 66 1011.5
20260509023243 15 125 0.0 0.0 0.00 0.00 0.00 65 1011.4
20260509022739 15 125 0.0 0.0 0.00 0.00 0.00 63 1011.3
20260509022237 15 125 0.0 0.0 0.00 0.00 0.00 61 1011.2
20260509021733 16 125 0.0 0.0 0.00 0.00 0.00 60 1011.3
20260509021231 16 125 0.0 0.0 0.00 0.00 0.00 59 1011.4